FIN6G EPKK-EFHK

Flight info

Callsign FIN6G
Flight time 1h 36m
Altitude 35000
Route POBOK DCT LOGDA DCT SUWGI DCT BOKSU DCT GUNTA M857 SOKVA DCT ANAMA DCT KEMET Q11 INTOR
Aircraft A321/M-SDE1E2E3FGHIJ1M1RWXYZ/LB1

Departure

Time 2026-04-25 19:50
Airport Kraków John Paul II International Airport (EPKK)

Arrival

Time 2026-04-25 21:27
Airport Helsinki Vantaa Airport (EFHK)
Time Latitude Longitude Altitude Speed Heading
2026-04-25 18:52 50.07316 19.80005 790 ft 0 kts 167°
2026-04-25 19:39 50.07327 19.80001 790 ft 3 kts 166°
2026-04-25 19:39 50.07346 19.79993 790 ft 3 kts 162°
2026-04-25 19:39 50.07365 19.79982 790 ft 3 kts 153°
2026-04-25 19:40 50.07381 19.79967 790 ft 3 kts 130°
2026-04-25 19:40 50.07389 19.79946 790 ft 2 kts 84°
2026-04-25 19:40 50.07386 19.79923 790 ft 2 kts 78°
2026-04-25 19:40 50.07385 19.79912 790 ft 0 kts 77°
2026-04-25 19:42 50.07385 19.79916 790 ft 1 kts 77°
2026-04-25 19:42 50.07386 19.79917 790 ft 0 kts 77°
2026-04-25 19:43 50.07390 19.79945 790 ft 7 kts 78°
2026-04-25 19:44 50.07406 19.80060 790 ft 15 kts 78°
2026-04-25 19:44 50.07430 19.80233 790 ft 6 kts 76°
2026-04-25 19:44 50.07434 19.80261 790 ft 4 kts 76°
2026-04-25 19:44 50.07439 19.80292 790 ft 0 kts 77°
2026-04-25 19:45 50.07440 19.80303 790 ft 3 kts 77°
2026-04-25 19:45 50.07457 19.80363 790 ft 9 kts 45°
2026-04-25 19:45 50.07527 19.80404 790 ft 11 kts 16°
2026-04-25 19:45 50.07561 19.80419 790 ft 1 kts 14°
2026-04-25 19:46 50.07572 19.80422 790 ft 3 kts
2026-04-25 19:46 50.07614 19.80414 790 ft 9 kts 348°
2026-04-25 19:46 50.07696 19.80387 790 ft 15 kts 348°
2026-04-25 19:46 50.07802 19.80350 790 ft 11 kts 347°
2026-04-25 19:47 50.07837 19.80338 790 ft 0 kts 348°
2026-04-25 19:47 50.07852 19.80334 790 ft 6 kts 348°
2026-04-25 19:48 50.07917 19.80312 790 ft 14 kts 348°
2026-04-25 19:48 50.08014 19.80245 789 ft 15 kts 294°
2026-04-25 19:48 50.08012 19.80184 790 ft 0 kts 257°
2026-04-25 19:49 50.08011 19.80179 790 ft 3 kts 256°
2026-04-25 19:50 50.07824 19.78845 793 ft 128 kts 257°
2026-04-25 19:50 50.07602 19.77294 1059 ft 153 kts 256°
2026-04-25 19:50 50.07365 19.75713 1836 ft 149 kts 259°
2026-04-25 19:51 50.07145 19.74114 2405 ft 155 kts 262°
2026-04-25 19:51 50.06908 19.72357 2599 ft 176 kts 261°
2026-04-25 19:51 50.06640 19.70375 2725 ft 200 kts 261°
2026-04-25 19:51 50.06333 19.68133 3018 ft 218 kts 262°
2026-04-25 19:52 50.06171 19.65801 3739 ft 216 kts 282°
2026-04-25 19:52 50.06868 19.63779 4417 ft 226 kts 313°
2026-04-25 19:52 50.08355 19.62587 4843 ft 251 kts 336°
2026-04-25 19:52 50.10083 19.61900 5536 ft 259 kts 342°
2026-04-25 19:53 50.11878 19.61475 6315 ft 267 kts 353°
2026-04-25 19:53 50.13754 19.61931 7044 ft 279 kts 11°
2026-04-25 19:53 50.15521 19.63263 7680 ft 293 kts 28°
2026-04-25 19:53 50.17091 19.65364 8389 ft 298 kts 36°
2026-04-25 19:54 50.18653 19.67518 9148 ft 300 kts 34°
2026-04-25 19:54 50.20243 19.69669 9868 ft 303 kts 34°
2026-04-25 19:54 50.21880 19.71867 10218 ft 321 kts 34°
2026-04-25 19:54 50.23031 19.73402 10306 ft 336 kts 34°
2026-04-25 19:55 50.25506 19.76718 10647 ft 359 kts 34°
2026-04-25 19:55 50.27385 19.79272 11188 ft 365 kts 35°
2026-04-25 19:55 50.29306 19.81902 11805 ft 369 kts 35°
2026-04-25 19:55 50.31249 19.84572 12424 ft 374 kts 35°
2026-04-25 19:56 50.33218 19.87277 13024 ft 378 kts 35°
2026-04-25 19:56 50.35209 19.90010 13611 ft 383 kts 35°
2026-04-25 19:56 50.37229 19.92780 14179 ft 387 kts 35°
2026-04-25 19:56 50.39261 19.95564 14741 ft 390 kts 35°
2026-04-25 19:57 50.41320 19.98388 15323 ft 393 kts 35°
2026-04-25 19:57 50.43390 20.01235 15928 ft 396 kts 35°
2026-04-25 19:57 50.45466 20.04094 16517 ft 399 kts 34°
2026-04-25 19:57 50.47565 20.06990 17096 ft 402 kts 34°
2026-04-25 19:58 50.49674 20.09902 17678 ft 405 kts 34°
2026-04-25 19:58 50.51771 20.12802 18222 ft 409 kts 34°
2026-04-25 19:58 50.53913 20.15772 18726 ft 412 kts 34°
2026-04-25 19:58 50.56093 20.18793 19219 ft 414 kts 34°
2026-04-25 19:59 50.58342 20.21486 19692 ft 410 kts 25°
2026-04-25 19:59 50.60831 20.23589 20201 ft 404 kts 15°
2026-04-25 19:59 50.63427 20.25308 20717 ft 405 kts 15°
2026-04-25 19:59 50.66045 20.27037 21227 ft 408 kts 15°
2026-04-25 20:00 50.68674 20.28786 21718 ft 411 kts 15°
2026-04-25 20:00 50.70420 20.29954 22050 ft 412 kts 15°
2026-04-25 20:00 50.73970 20.32334 22694 ft 416 kts 15°
2026-04-25 20:00 50.76636 20.34130 23171 ft 418 kts 15°
2026-04-25 20:01 50.82030 20.37768 23988 ft 422 kts 15°
2026-04-25 20:01 50.84741 20.39595 24369 ft 424 kts 15°
2026-04-25 20:01 50.87461 20.41431 24742 ft 427 kts 15°
2026-04-25 20:02 50.90169 20.43260 25108 ft 429 kts 15°
2026-04-25 20:02 50.92937 20.45130 25470 ft 431 kts 15°
2026-04-25 20:02 50.95700 20.46993 25827 ft 433 kts 15°
2026-04-25 20:02 50.98482 20.48875 26185 ft 435 kts 15°
2026-04-25 20:03 51.01245 20.50749 26528 ft 438 kts 15°
2026-04-25 20:03 51.04059 20.52664 26890 ft 440 kts 15°
2026-04-25 20:03 51.06889 20.54598 27218 ft 443 kts 15°
2026-04-25 20:03 51.09726 20.56541 27557 ft 445 kts 15°
2026-04-25 20:04 51.12579 20.58496 27900 ft 447 kts 15°
2026-04-25 20:04 51.15451 20.60460 28225 ft 449 kts 15°
2026-04-25 20:04 51.18294 20.62405 28539 ft 451 kts 15°
2026-04-25 20:04 51.21194 20.64387 28850 ft 454 kts 15°
2026-04-25 20:05 51.24118 20.66387 29159 ft 456 kts 15°
2026-04-25 20:05 51.27042 20.68395 29478 ft 459 kts 15°
2026-04-25 20:05 51.29981 20.70439 29796 ft 462 kts 15°
2026-04-25 20:05 51.32927 20.72563 30075 ft 465 kts 16°
2026-04-25 20:06 51.35823 20.74714 30428 ft 464 kts 17°
2026-04-25 20:06 51.38737 20.76916 30834 ft 463 kts 17°
2026-04-25 20:06 51.41653 20.79131 31222 ft 462 kts 17°
2026-04-25 20:06 51.44559 20.81334 31622 ft 460 kts 17°
2026-04-25 20:07 51.47461 20.83514 32017 ft 459 kts 16°
2026-04-25 20:07 51.50320 20.85646 32410 ft 457 kts 16°
2026-04-25 20:07 51.53209 20.87795 32800 ft 455 kts 16°
2026-04-25 20:07 51.56084 20.89939 33190 ft 454 kts 16°
2026-04-25 20:08 51.58961 20.92090 33575 ft 453 kts 16°
2026-04-25 20:08 51.61772 20.94196 33918 ft 451 kts 16°
2026-04-25 20:08 51.64631 20.96338 34199 ft 451 kts 16°
2026-04-25 20:08 51.67486 20.98476 34452 ft 452 kts 16°
2026-04-25 20:09 51.70343 21.00620 34688 ft 452 kts 16°
2026-04-25 20:09 51.73205 21.02769 34777 ft 453 kts 16°
2026-04-25 20:09 51.78903 21.07073 34792 ft 452 kts 16°
2026-04-25 20:10 51.84565 21.11360 34783 ft 452 kts 16°
2026-04-25 20:10 51.90266 21.15696 34781 ft 452 kts 16°
2026-04-25 20:11 51.95978 21.20058 34764 ft 453 kts 16°
2026-04-25 20:11 52.01653 21.24393 34769 ft 453 kts 16°
2026-04-25 20:12 52.07378 21.28770 34779 ft 454 kts 16°
2026-04-25 20:12 52.11203 21.31704 34784 ft 454 kts 16°
2026-04-25 20:13 52.18835 21.37597 34786 ft 455 kts 16°
2026-04-25 20:13 52.24537 21.41996 34793 ft 456 kts 16°
2026-04-25 20:14 52.30284 21.46439 34783 ft 457 kts 16°
2026-04-25 20:14 52.36036 21.50914 34777 ft 457 kts 16°
2026-04-25 20:15 52.41762 21.55368 34770 ft 458 kts 16°
2026-04-25 20:15 52.47529 21.59882 34769 ft 459 kts 16°
2026-04-25 20:16 52.53312 21.64436 34770 ft 460 kts 16°
2026-04-25 20:16 52.59097 21.68983 34770 ft 461 kts 16°
2026-04-25 20:17 52.64865 21.73522 34768 ft 462 kts 17°
2026-04-25 20:17 52.70673 21.78125 34768 ft 463 kts 17°
2026-04-25 20:18 52.76497 21.82742 34765 ft 464 kts 17°
2026-04-25 20:18 52.82345 21.87386 34762 ft 465 kts 17°
2026-04-25 20:19 52.88181 21.92047 34759 ft 466 kts 17°
2026-04-25 20:19 52.93998 21.96708 34756 ft 468 kts 17°
2026-04-25 20:20 52.99870 22.01422 34755 ft 469 kts 17°
2026-04-25 20:20 53.05731 22.06140 34754 ft 470 kts 17°
2026-04-25 20:21 53.11612 22.10891 34747 ft 470 kts 17°
2026-04-25 20:21 53.17530 22.15684 34746 ft 471 kts 17°
2026-04-25 20:22 53.21439 22.18866 34744 ft 472 kts 17°
2026-04-25 20:22 53.29321 22.25283 34742 ft 473 kts 18°
2026-04-25 20:23 53.35242 22.30122 34740 ft 474 kts 18°
2026-04-25 20:23 53.41164 22.34989 34731 ft 474 kts 18°
2026-04-25 20:24 53.47097 22.39873 34730 ft 475 kts 18°
2026-04-25 20:24 53.53077 22.44798 34708 ft 485 kts 18°
2026-04-25 20:25 53.59200 22.49853 34703 ft 494 kts 18°
2026-04-25 20:25 53.65389 22.54994 34696 ft 496 kts 18°
2026-04-25 20:26 53.71566 22.60158 34692 ft 496 kts 19°
2026-04-25 20:26 53.77754 22.65350 34691 ft 496 kts 19°
2026-04-25 20:27 53.83903 22.70507 34697 ft 496 kts 19°
2026-04-25 20:27 53.90100 22.75709 34707 ft 497 kts 19°
2026-04-25 20:28 53.96294 22.80941 34708 ft 497 kts 19°
2026-04-25 20:28 54.02484 22.86195 34706 ft 497 kts 19°
2026-04-25 20:29 54.08716 22.91193 34705 ft 491 kts 14°
2026-04-25 20:29 54.15080 22.95422 34702 ft 491 kts 14°
2026-04-25 20:30 54.20376 22.98941 34699 ft 491 kts 14°
2026-04-25 20:30 54.27771 23.03889 34694 ft 491 kts 14°
2026-04-25 20:31 54.34247 23.07049 34690 ft 479 kts
2026-04-25 20:31 54.39742 23.08794 34686 ft 480 kts
2026-04-25 20:32 54.46314 23.10895 34672 ft 480 kts
2026-04-25 20:32 54.52881 23.13018 34679 ft 481 kts
2026-04-25 20:33 54.59462 23.15177 34674 ft 481 kts
2026-04-25 20:33 54.64930 23.16956 34673 ft 481 kts
2026-04-25 20:34 54.72590 23.19455 34666 ft 482 kts
2026-04-25 20:34 54.79183 23.21610 34664 ft 482 kts
2026-04-25 20:35 54.85775 23.23759 34666 ft 482 kts
2026-04-25 20:35 54.92389 23.25932 34663 ft 482 kts
2026-04-25 20:36 54.98984 23.28107 34664 ft 482 kts
2026-04-25 20:36 55.05584 23.30298 34663 ft 482 kts
2026-04-25 20:37 55.12137 23.32491 34657 ft 482 kts
2026-04-25 20:37 55.18737 23.34704 34657 ft 483 kts
2026-04-25 20:38 55.25354 23.36922 34653 ft 483 kts
2026-04-25 20:38 55.31955 23.39127 34656 ft 483 kts
2026-04-25 20:39 55.38521 23.41333 34651 ft 483 kts
2026-04-25 20:39 55.44013 23.43195 34651 ft 483 kts
2026-04-25 20:40 55.51745 23.45832 34649 ft 483 kts
2026-04-25 20:40 55.58343 23.48078 34653 ft 483 kts
2026-04-25 20:41 55.64918 23.50325 34663 ft 483 kts
2026-04-25 20:41 55.71537 23.52592 34670 ft 484 kts
2026-04-25 20:42 55.78155 23.54875 34676 ft 484 kts
2026-04-25 20:42 55.84773 23.57170 34681 ft 484 kts
2026-04-25 20:43 55.91348 23.59458 34676 ft 484 kts
2026-04-25 20:43 55.97959 23.61753 34673 ft 484 kts
2026-04-25 20:44 56.04570 23.64053 34676 ft 484 kts
2026-04-25 20:44 56.11199 23.66387 34655 ft 485 kts
2026-04-25 20:45 56.17781 23.68813 34649 ft 485 kts
2026-04-25 20:45 56.24389 23.71294 34649 ft 485 kts
2026-04-25 20:46 56.31001 23.73771 34646 ft 485 kts
2026-04-25 20:46 56.37632 23.76237 34646 ft 485 kts
2026-04-25 20:47 56.44201 23.78690 34640 ft 485 kts
2026-04-25 20:47 56.50808 23.81183 34641 ft 485 kts
2026-04-25 20:48 56.57425 23.83677 34641 ft 485 kts
2026-04-25 20:48 56.63999 23.86160 34642 ft 485 kts
2026-04-25 20:49 56.70610 23.88698 34642 ft 485 kts
2026-04-25 20:49 56.77227 23.91248 34644 ft 485 kts
2026-04-25 20:50 56.83839 23.93768 34647 ft 485 kts
2026-04-25 20:50 56.90421 23.96274 34646 ft 485 kts
2026-04-25 20:51 56.97031 23.98823 34644 ft 486 kts
2026-04-25 20:51 57.03655 24.01400 34646 ft 486 kts
2026-04-25 20:52 57.09154 24.03536 34638 ft 486 kts
2026-04-25 20:52 57.16745 24.06488 34596 ft 467 kts
2026-04-25 20:53 57.23090 24.08970 34587 ft 464 kts
2026-04-25 20:53 57.29381 24.11430 34581 ft 463 kts
2026-04-25 20:54 57.35687 24.13917 34572 ft 463 kts
2026-04-25 20:54 57.42005 24.16416 34573 ft 463 kts
2026-04-25 20:55 57.48271 24.18899 34579 ft 463 kts
2026-04-25 20:55 57.54590 24.21406 34581 ft 464 kts
2026-04-25 20:56 57.60914 24.23926 34571 ft 464 kts
2026-04-25 20:56 57.67228 24.26458 34572 ft 464 kts
2026-04-25 20:57 57.73542 24.28992 34573 ft 463 kts
2026-04-25 20:57 57.79835 24.31544 34569 ft 463 kts
2026-04-25 20:58 57.86112 24.34091 34567 ft 464 kts
2026-04-25 20:58 57.92423 24.36651 34561 ft 464 kts
2026-04-25 20:59 57.98738 24.39231 34560 ft 464 kts
2026-04-25 20:59 58.05022 24.41817 34558 ft 464 kts
2026-04-25 21:00 58.09256 24.43557 34548 ft 464 kts
2026-04-25 21:01 58.20828 24.48311 34543 ft 464 kts
2026-04-25 21:01 58.27118 24.50914 34539 ft 464 kts
2026-04-25 21:02 58.33424 24.53535 34534 ft 464 kts
2026-04-25 21:02 58.39744 24.56188 34536 ft 463 kts
2026-04-25 21:03 58.46012 24.58830 34509 ft 464 kts
2026-04-25 21:03 58.49165 24.60160 34273 ft 462 kts
2026-04-25 21:03 58.52309 24.61486 34031 ft 462 kts
2026-04-25 21:03 58.55465 24.62813 33335 ft 466 kts
2026-04-25 21:04 58.58630 24.64143 32817 ft 463 kts
2026-04-25 21:04 58.61768 24.65466 32285 ft 460 kts
2026-04-25 21:04 58.64856 24.66770 31784 ft 458 kts
2026-04-25 21:04 58.67969 24.68087 31245 ft 455 kts
2026-04-25 21:05 58.71054 24.69399 30722 ft 453 kts
2026-04-25 21:05 58.74132 24.70720 30194 ft 450 kts 10°
2026-04-25 21:05 58.77141 24.72016 29700 ft 448 kts 10°
2026-04-25 21:05 58.80166 24.73317 29110 ft 445 kts 10°
2026-04-25 21:06 58.83173 24.74607 28614 ft 439 kts 10°
2026-04-25 21:06 58.86144 24.75889 28110 ft 434 kts 10°
2026-04-25 21:06 58.89079 24.77158 27628 ft 429 kts 10°
2026-04-25 21:06 58.91004 24.77990 27317 ft 426 kts 10°
2026-04-25 21:07 58.94840 24.79646 26684 ft 419 kts 10°
2026-04-25 21:07 58.97670 24.80867 26225 ft 414 kts 10°
2026-04-25 21:07 59.00473 24.82085 25788 ft 409 kts 10°
2026-04-25 21:07 59.03193 24.83272 25352 ft 404 kts
2026-04-25 21:08 59.05921 24.84456 24931 ft 400 kts 10°
2026-04-25 21:08 59.08639 24.85631 24509 ft 396 kts
2026-04-25 21:08 59.11319 24.86792 24096 ft 393 kts
2026-04-25 21:08 59.13974 24.87949 23680 ft 390 kts 10°
2026-04-25 21:09 59.19244 24.90260 22799 ft 385 kts 10°
2026-04-25 21:09 59.21827 24.91397 22359 ft 382 kts 10°
2026-04-25 21:09 59.24406 24.92535 21930 ft 378 kts 10°
2026-04-25 21:10 59.26962 24.93658 21491 ft 373 kts
2026-04-25 21:10 59.29491 24.94768 21056 ft 370 kts 10°
2026-04-25 21:10 59.31986 24.95866 20622 ft 366 kts 10°
2026-04-25 21:10 59.34463 24.96960 20189 ft 362 kts
2026-04-25 21:11 59.36882 24.98029 19759 ft 358 kts
2026-04-25 21:11 59.39307 24.99102 19342 ft 354 kts
2026-04-25 21:11 59.41711 25.00119 18774 ft 352 kts
2026-04-25 21:11 59.44186 25.00718 17870 ft 363 kts
2026-04-25 21:12 59.46692 25.01198 17452 ft 357 kts
2026-04-25 21:12 59.49118 25.01618 17011 ft 352 kts
2026-04-25 21:12 59.51577 25.02030 16536 ft 347 kts
2026-04-25 21:12 59.52350 25.02161 16396 ft 345 kts
2026-04-25 21:13 59.56295 25.02836 15612 ft 338 kts
2026-04-25 21:13 59.58628 25.03255 15155 ft 334 kts
2026-04-25 21:13 59.60935 25.03681 14664 ft 330 kts
2026-04-25 21:13 59.63215 25.04107 14232 ft 326 kts
2026-04-25 21:14 59.65435 25.04516 13771 ft 322 kts
2026-04-25 21:14 59.67682 25.04927 13263 ft 316 kts
2026-04-25 21:14 59.69786 25.05317 12684 ft 298 kts
2026-04-25 21:14 59.71819 25.05697 12096 ft 289 kts
2026-04-25 21:15 59.73814 25.06065 11521 ft 286 kts
2026-04-25 21:15 59.75792 25.06427 10933 ft 283 kts
2026-04-25 21:15 59.77736 25.06789 10387 ft 276 kts
2026-04-25 21:15 59.79601 25.07138 9843 ft 264 kts
2026-04-25 21:16 59.81403 25.07476 9310 ft 257 kts
2026-04-25 21:16 59.83180 25.07806 8716 ft 255 kts
2026-04-25 21:16 59.84924 25.08124 8154 ft 252 kts
2026-04-25 21:16 59.86664 25.08444 7563 ft 249 kts
2026-04-25 21:17 59.88376 25.08759 6985 ft 246 kts
2026-04-25 21:17 59.90066 25.09068 6499 ft 241 kts
2026-04-25 21:17 59.91743 25.09375 6383 ft 243 kts
2026-04-25 21:17 59.93432 25.09688 6068 ft 243 kts
2026-04-25 21:18 59.95103 25.09999 5726 ft 241 kts
2026-04-25 21:18 59.96762 25.10305 5342 ft 238 kts
2026-04-25 21:18 59.97852 25.10508 5111 ft 235 kts
2026-04-25 21:18 59.99476 25.10814 4821 ft 233 kts
2026-04-25 21:19 60.01086 25.11118 4528 ft 231 kts
2026-04-25 21:19 60.02681 25.11421 4242 ft 229 kts
2026-04-25 21:19 60.04772 25.11821 3865 ft 228 kts
2026-04-25 21:19 60.06339 25.12125 3617 ft 223 kts
2026-04-25 21:20 60.07362 25.12320 3447 ft 220 kts
2026-04-25 21:20 60.08366 25.12509 3364 ft 217 kts
2026-04-25 21:20 60.10322 25.12883 3178 ft 203 kts
2026-04-25 21:20 60.11679 25.13143 3042 ft 188 kts
2026-04-25 21:21 60.12951 25.13384 2918 ft 182 kts
2026-04-25 21:21 60.14204 25.13620 2769 ft 180 kts
2026-04-25 21:21 60.15427 25.13728 2652 ft 176 kts 356°
2026-04-25 21:21 60.16580 25.13181 2542 ft 166 kts 343°
2026-04-25 21:22 60.17567 25.12202 2424 ft 148 kts 339°
2026-04-25 21:22 60.18431 25.11313 2359 ft 133 kts 339°
2026-04-25 21:22 60.19250 25.10483 2298 ft 130 kts 340°
2026-04-25 21:22 60.20052 25.09673 2298 ft 128 kts 340°
2026-04-25 21:23 60.20850 25.08867 2300 ft 127 kts 340°
2026-04-25 21:23 60.21636 25.08073 2139 ft 128 kts 339°
2026-04-25 21:23 60.22432 25.07264 1957 ft 128 kts 338°
2026-04-25 21:23 60.23226 25.06460 1783 ft 128 kts 338°
2026-04-25 21:24 60.24019 25.05653 1606 ft 127 kts 337°
2026-04-25 21:24 60.24783 25.04875 1444 ft 127 kts 336°
2026-04-25 21:24 60.25569 25.04075 1275 ft 127 kts 336°
2026-04-25 21:24 60.26284 25.03349 1102 ft 128 kts 335°
2026-04-25 21:25 60.27015 25.02606 958 ft 129 kts 334°
2026-04-25 21:25 60.27826 25.01778 791 ft 129 kts 332°
2026-04-25 21:25 60.28631 25.00953 638 ft 130 kts 332°
2026-04-25 21:25 60.29445 25.00144 475 ft 131 kts 331°
2026-04-25 21:26 60.30258 24.99299 325 ft 131 kts 331°
2026-04-25 21:26 60.31054 24.98470 177 ft 123 kts 331°
2026-04-25 21:26 60.31658 24.97844 152 ft 59 kts 332°
2026-04-25 21:26 60.31935 24.97556 154 ft 51 kts 333°
2026-04-25 21:27 60.32289 24.97191 158 ft 40 kts 333°
2026-04-25 21:27 60.32385 24.97009 164 ft 15 kts 266°
2026-04-25 21:27 60.32345 24.96881 165 ft 8 kts 227°
2026-04-25 21:27 60.32287 24.96768 166 ft 16 kts 227°
2026-04-25 21:28 60.32206 24.96790 166 ft 11 kts 137°
2026-04-25 21:28 60.32131 24.96874 166 ft 14 kts 152°
2026-04-25 21:28 60.32034 24.96976 166 ft 18 kts 153°
2026-04-25 21:28 60.31917 24.97102 166 ft 21 kts 152°
2026-04-25 21:29 60.31792 24.97230 166 ft 20 kts 149°
2026-04-25 21:29 60.31676 24.97341 166 ft 9 kts 170°
2026-04-25 21:29 60.31641 24.97274 167 ft 2 kts 242°
2026-04-25 21:29 60.31635 24.97252 167 ft 0 kts 242°